Location: El Gallo
(32.4380°N, 116.9347°W)
Time: 09:32:20
(UTC+00:00)

Okean 1 - Visible Passes

Search period start: 26 March 2023 00:00
Search period end: 05 April 2023 00:00
Orbit: 523 x 550 km, 82.5° (Epoch: 25 March)

Date Brightness Start Highest point End Pass type
(mag) Time Alt. Az. Time Alt. Az. Time Alt. Az.
26 Mar 5.1 12:33:00 10° SSE 12:36:32 34° E 12:40:06 10° NNE visible
27 Mar 5.1 12:24:27 10° SSE 12:27:58 33° E 12:31:32 10° NNE visible
28 Mar 5.1 12:15:54 10° SSE 12:19:23 33° E 12:22:55 10° NNE visible
29 Mar 5.1 12:07:18 10° SSE 12:10:48 32° E 12:14:19 10° NNE visible
30 Mar 5.1 11:58:43 10° SSE 12:02:11 31° E 12:05:41 10° NNE visible
31 Mar 5.1 11:50:07 10° SSE 11:53:33 30° E 11:57:02 10° NNE visible
01 Apr 5.1 11:41:30 10° SSE 11:44:54 30° E 11:48:23 10° NNE visible
02 Apr 5.1 11:33:40 15° SE 11:36:16 29° E 11:39:42 10° NNE visible
02 Apr 5.1 13:10:26 10° WSW 13:12:25 13° WNW 13:14:26 10° NW visible
03 Apr 5.2 11:25:54 20° SE 11:27:36 28° E 11:31:01 10° NNE visible
03 Apr 5.1 13:01:40 10° WSW 13:03:45 14° WNW 13:05:51 10° NW visible
04 Apr 5.1 11:17:59 25° ESE 11:18:54 28° E 11:22:19 10° NNE visible
04 Apr 5.1 12:53:28 12° WSW 12:55:03 14° WNW 12:57:14 10° NW visible
